Weather History for Bar Harbor, ME

Change the Weather History Date:

Thursday, February 21, 2013

  Actual Average Record
Temperature  
Mean Temperature 30 °F -  
Max Temperature 35 °F 33 °F 52 °F (1953)
Min Temperature 24 °F 18 °F -9 °F (1950)
Degree Days  
Heating Degree Days 36    
Moisture  
Dew Point 21 °F    
Average Humidity 73    
Maximum Humidity 100    
Minimum Humidity 59    
Precipitation  
Precipitation 0.00 in - - ()
Sea Level Pressure  
Sea Level Pressure 29.73 in    
Wind  
Wind Speed 9 mph (NW)    
Max Wind Speed 21 mph    
Max Gust Speed 31 mph    
Visibility 10 miles    
Events      
Averages and records for this station are not official NWS values.
T = Trace of Precipitation, MM = Missing Value Source: NWS Daily Summary

Daily Weather History Graph

Daily Weather History Graph

Search for Another Location

Airport:

Trip Planner

Search our weather history database for the weather conditions in past years. The results will help you decide how hot, cold, wet, or windy it might be!

Date:

Astronomy

Feb. 21, 2013 Rise Set
Actual Time 6:23 AM EST 5:10 PM EST
Civil Twilight 5:54 AM EST 5:40 PM EST
Nautical Twilight 5:20 AM EST 6:14 PM EST
Astronomical Twilight 4:46 AM EST 6:47 PM EST
Moon 1:16 PM EST (2/21) 3:32 AM EST (2/21)
Length of Visible Light 11h 46m
Length of Day
10h 47m
Waxing Gibbous, 83% of the Moon is Illuminated
Feb 21
Waxing Gibbous
Feb 25
Full
Mar 4
Last Quarter
Mar 11
New
Mar 19
First Quarter

Hourly Weather History & Observations

Time (EST) Temp. Windchill Dew Point Humidity Pressure Visibility Wind Dir Wind Speed Gust Speed Precip Events Conditions
12:15 AM 28.4 °F 20.4 °F 19.4 °F 69% 29.56 in 10.0 mi West 8.1 mph - N/A   Overcast
12:35 AM 28.4 °F 20.4 °F 19.4 °F 69% 29.57 in 10.0 mi West 8.1 mph 16.1 mph N/A   Overcast
12:55 AM 28.4 °F 20.4 °F 19.4 °F 69% 29.57 in 10.0 mi West 8.1 mph - N/A   Overcast
1:15 AM 28.4 °F 19.1 °F 19.4 °F 69% 29.58 in 10.0 mi West 10.4 mph - N/A   Overcast
1:35 AM 28.4 °F 21.2 °F 19.4 °F 69% 29.59 in 10.0 mi WNW 6.9 mph - N/A   Scattered Clouds
1:55 AM 28.4 °F 20.4 °F 17.6 °F 64% 29.59 in 10.0 mi West 8.1 mph - N/A   Scattered Clouds
2:15 AM 28.4 °F 21.2 °F 17.6 °F 64% 29.60 in 10.0 mi West 6.9 mph - N/A   Overcast
2:35 AM 28.4 °F 20.4 °F 17.6 °F 64% 29.59 in 10.0 mi WNW 8.1 mph - N/A   Overcast
2:55 AM 26.6 °F 19.1 °F 17.6 °F 69% 29.59 in 10.0 mi WNW 6.9 mph - N/A   Mostly Cloudy
3:15 AM 26.6 °F 18.2 °F 17.6 °F 69% 29.59 in 10.0 mi West 8.1 mph - N/A   Clear
3:35 AM 26.6 °F 20.0 °F 17.6 °F 69% 29.60 in 10.0 mi WNW 5.8 mph - N/A   Partly Cloudy
3:55 AM 26.6 °F 17.5 °F 17.6 °F 69% 29.60 in 10.0 mi West 9.2 mph - N/A   Clear
4:15 AM 26.6 °F 19.1 °F 17.6 °F 69% 29.60 in 10.0 mi West 6.9 mph - N/A   Scattered Clouds
4:35 AM 26.6 °F 19.1 °F 17.6 °F 69% 29.61 in 10.0 mi WNW 6.9 mph - N/A   Clear
4:55 AM 26.6 °F 22.6 °F 17.6 °F 69% 29.62 in 10.0 mi WNW 3.5 mph - N/A   Clear
5:15 AM 24.8 °F 20.5 °F 17.6 °F 74% 29.62 in 10.0 mi WNW 3.5 mph - N/A   Clear
5:35 AM 24.8 °F 17.9 °F 17.6 °F 74% 29.63 in 10.0 mi West 5.8 mph - N/A   Mostly Cloudy
5:55 AM 24.8 °F 16.9 °F 15.8 °F 69% 29.63 in 10.0 mi WNW 6.9 mph - N/A   Overcast
6:15 AM 24.8 °F 16.9 °F 17.6 °F 74% 29.65 in 10.0 mi West 6.9 mph - N/A   Overcast
6:55 AM 24.8 °F 17.9 °F 15.8 °F 69% 29.65 in 10.0 mi NW 5.8 mph - N/A   Mostly Cloudy
7:15 AM 24.8 °F 16.9 °F 15.8 °F 69% 29.66 in 10.0 mi West 6.9 mph - N/A   Partly Cloudy
7:35 AM 24.8 °F 16.1 °F 15.8 °F 69% 29.66 in 10.0 mi WNW 8.1 mph - N/A   Clear
7:55 AM 24.8 °F 16.1 °F 15.8 °F 69% 29.67 in 10.0 mi West 8.1 mph 16.1 mph N/A   Clear
8:15 AM 24.8 °F 13.4 °F 14.0 °F 64% 29.68 in 10.0 mi NW 12.7 mph 17.3 mph N/A   Clear
8:35 AM 24.8 °F 14.6 °F 14.0 °F 64% 29.69 in 10.0 mi WNW 10.4 mph - N/A   Partly Cloudy
8:55 AM 26.6 °F 16.8 °F 15.8 °F 64% 29.68 in 10.0 mi WNW 10.4 mph - N/A   Partly Cloudy
9:15 AM 26.6 °F 17.5 °F 15.8 °F 64% 29.68 in 10.0 mi NW 9.2 mph - N/A   Clear
9:35 AM 26.6 °F 19.1 °F 15.8 °F 64% 29.69 in 10.0 mi NW 6.9 mph - N/A   Clear
9:55 AM 26.6 °F 17.5 °F 15.8 °F 64% 29.68 in 10.0 mi WNW 9.2 mph 16.1 mph N/A   Partly Cloudy
10:15 AM 28.4 °F 21.2 °F 15.8 °F 59% 29.69 in 10.0 mi WNW 6.9 mph - N/A   Partly Cloudy
10:35 AM 28.4 °F 21.2 °F 17.6 °F 64% 29.69 in 10.0 mi West 6.9 mph 16.1 mph N/A   Mostly Cloudy
10:55 AM 28.4 °F 19.7 °F 15.8 °F 59% 29.69 in 10.0 mi NW 9.2 mph - N/A   Overcast
11:15 AM 28.4 °F 20.4 °F 17.6 °F 64% 29.69 in 10.0 mi NW 8.1 mph 16.1 mph N/A   Overcast
11:35 AM 28.4 °F 19.1 °F 17.6 °F 64% 29.69 in 10.0 mi NW 10.4 mph 16.1 mph N/A   Overcast
11:55 AM 26.6 °F 18.2 °F 19.4 °F 74% 29.69 in 10.0 mi NW 8.1 mph - N/A   Overcast
12:15 PM 26.6 °F 17.5 °F 19.4 °F 74% 29.69 in 10.0 mi NW 9.2 mph 16.1 mph N/A   Overcast
12:35 PM 26.6 °F 17.5 °F 17.6 °F 69% 29.69 in 10.0 mi NW 9.2 mph 16.1 mph N/A   Overcast
12:55 PM 26.6 °F 16.8 °F 17.6 °F 69% 29.69 in 10.0 mi NW 10.4 mph - N/A   Overcast
1:15 PM 28.4 °F 19.7 °F 19.4 °F 69% 29.69 in 10.0 mi NNW 9.2 mph 17.3 mph N/A   Overcast
1:35 PM 28.4 °F 21.2 °F 19.4 °F 69% 29.69 in 10.0 mi NNW 6.9 mph 16.1 mph N/A   Overcast
1:55 PM 26.6 °F 16.8 °F 19.4 °F 74% 29.70 in 9.0 mi NW 10.4 mph 17.3 mph N/A   Overcast
2:35 PM 26.6 °F 16.8 °F 21.2 °F 80% 29.71 in 9.0 mi NW 10.4 mph 18.4 mph N/A   Overcast
2:55 PM 26.6 °F 17.5 °F 21.2 °F 80% 29.71 in 10.0 mi NNW 9.2 mph - N/A   Overcast
3:15 PM 28.4 °F 19.1 °F 21.2 °F 74% 29.72 in 10.0 mi NW 10.4 mph 16.1 mph N/A   Overcast
3:35 PM 28.4 °F 21.2 °F 24.8 °F 86% 29.72 in 8.0 mi NNW 6.9 mph 16.1 mph N/A   Overcast
4:15 PM 28.4 °F 19.7 °F 24.8 °F 86% 29.73 in 6.0 mi NNW 9.2 mph - N/A   Overcast
4:35 PM 28.4 °F 20.4 °F 26.6 °F 93% 29.75 in 9.0 mi NNW 8.1 mph - N/A   Overcast
4:55 PM 28.4 °F 19.7 °F 26.6 °F 93% 29.76 in 3.0 mi NNW 9.2 mph - N/A   Overcast
5:15 PM 28.4 °F 19.7 °F 28.4 °F 100% 29.77 in 3.0 mi NNW 9.2 mph - N/A   Overcast
5:35 PM 30.2 °F 22.6 °F 28.4 °F 93% 29.79 in 8.0 mi NNW 8.1 mph - N/A   Overcast
5:55 PM 30.2 °F 21.3 °F 30.2 °F 100% 29.80 in 6.0 mi NNW 10.4 mph - N/A   Overcast
6:55 PM 33.8 °F 23.2 °F 28.4 °F 81% 29.84 in 10.0 mi North 17.3 mph 25.3 mph N/A   Overcast
7:15 PM 33.8 °F 23.9 °F 28.4 °F 81% 29.86 in 10.0 mi North 15.0 mph 26.5 mph N/A   Overcast
7:35 PM 33.8 °F 22.5 °F 28.4 °F 81% 29.87 in 10.0 mi North 19.6 mph 27.6 mph N/A   Overcast
7:55 PM 33.8 °F 23.5 °F 28.4 °F 81% 29.89 in 10.0 mi North 16.1 mph 26.5 mph N/A   Overcast
8:15 PM 35.6 °F 26.6 °F 28.4 °F 75% 29.91 in 10.0 mi North 13.8 mph 28.8 mph N/A   Overcast
8:35 PM 35.6 °F 24.8 °F 28.4 °F 75% 29.93 in 10.0 mi North 19.6 mph 28.8 mph N/A   Overcast
8:55 PM 33.8 °F 23.5 °F 28.4 °F 81% 29.95 in 10.0 mi North 16.1 mph 25.3 mph N/A   Overcast
9:15 PM 33.8 °F 23.2 °F 28.4 °F 81% 29.96 in 10.0 mi North 17.3 mph 25.3 mph N/A   Overcast
9:35 PM 33.8 °F 24.8 °F 28.4 °F 81% 29.98 in 10.0 mi North 12.7 mph 31.1 mph N/A   Overcast
9:55 PM 33.8 °F 22.2 °F 26.6 °F 75% 29.98 in 10.0 mi North 20.7 mph 27.6 mph N/A   Overcast
10:15 PM 33.8 °F 24.3 °F 26.6 °F 75% 30.01 in 10.0 mi North 13.8 mph 26.5 mph N/A   Overcast
10:35 PM 33.8 °F 22.8 °F 26.6 °F 75% 30.01 in 10.0 mi North 18.4 mph 25.3 mph N/A   Overcast
10:55 PM 33.8 °F 24.8 °F 26.6 °F 75% 30.03 in 10.0 mi North 12.7 mph 21.9 mph N/A   Overcast
11:15 PM 33.8 °F 23.5 °F 26.6 °F 75% 30.03 in 10.0 mi North 16.1 mph 20.7 mph N/A   Overcast
11:35 PM 33.8 °F 24.3 °F 26.6 °F 75% 30.05 in 10.0 mi North 13.8 mph 24.2 mph N/A   Overcast
11:55 PM 33.8 °F 23.9 °F 24.8 °F 70% 30.06 in 10.0 mi North 15.0 mph 25.3 mph N/A   Overcast